Location: Cajon Junction
(34.3117°N, 117.4748°W)
Time: 06:02:02
(UTC+00:00)

CBERS-1 - Pass Details

Date: 18 April 2024
Orbit: 766 x 775 km, 98.8° (Epoch: 28 May)

Event Time Altitude Azimuth Distance (km) Brightness Sun altitude
Rises 12:05:36 0° 14° (NNE) 3,244 7.8 -14.2°
Reaches altitude 10° 12:07:55 10° 15° (NNE) 2,313 7.0 -13.8°
Maximum altitude 12:13:01 83° 103° (ESE) 776 4.1 -12.8°
Drops below altitude 10° 12:18:06 10° 192° (SSW) 2,296 6.1 -11.8°
Sets 12:20:23 0° 193° (SSW) 3,218 6.9 -11.4°
